Regional Weather Roundup
Issued by NWS Green Bay, WI

Home | Current Version | Previous Version | Graphics & Text | Print | Product List | Glossary Off
Versions: 1 2 3 4 5 6 7 8 9 10 11 12 13 14 15 16 17 18 19 20 21 22 23 24 25 26 27 28 29 30 31 32 33 34 35 36 37 38 39 40 41 42 43 44 45 46 47 48 49 50

000
ASUS43 KGRB 260811
RWRGRB

NORTH-CENTRAL AND NORTHEAST WISCONSIN REGIONAL WEATHER ROUNDUP
NATIONAL WEATHER SERVICE GREEN BAY WI
300 AM CDT WED APR 26 2017

WIZ005-009-010>012-018-019-260900-
NORTH CENTRAL WISCONSIN

CITY           SKY/WX    TMP DP  RH WIND       PRES   REMARKS
IRONWOOD       MIX PCPN  32  31  96 NE12G21   29.64F
MANITOWISH WTR RAIN      34  34 100 N10G18    29.58F
ARBOR VITAE    RAIN      39  38  94 NE9       29.56F
EAGLE RIVER    LGT RAIN  40  40 100 NE10      29.56F
LAND O LAKES   LGT SNOW  37  37  99 NE9       29.61F
RHINELANDER    LGT RAIN  45  45 100 VRB6      29.55F
PHILLIPS       LGT RAIN  36  36 100 NE10      29.55F
ANTIGO         CLOUDY    51  50  97 E14       29.50F
TOMAHAWK       DRIZZLE   44  43  95 N7        29.54F
MERRILL        CLOUDY    54  54 100 E6        29.51F
$$

WIZ013-073-260900-
NORTHEAST WISCONSIN

CITY           SKY/WX    TMP DP  RH WIND       PRES   REMARKS
IRON MOUNTAIN  RAIN      51  47  86 VRB7      29.57F FOG
MARINETTE      LGT RAIN  45  43  93 NE10      29.56F
OCONTO         CLOUDY    48  45  90 NE5       29.54F
$$

WIZ017-030-035>037-045-260900-
CENTRAL WISCONSIN

CITY           SKY/WX    TMP DP  RH WIND       PRES   REMARKS
MEDFORD        DRIZZLE   52  51  97 NE10      29.48F
WAUSAU         LGT RAIN  55  54  96 E7        29.48F
MOSINEE        RAIN      54  54 100 E10       29.49F
MARSHFIELD     LGT RAIN  56  52  86 E10       29.45F
WISC RAPIDS    LGT RAIN  58  56  93 E5        29.46F
STEVENS POINT  CLOUDY    56  55  97 E9        29.49F
WAUPACA        RAIN      59  55  86 E6        29.49F
SHAWANO        DRIZZLE   53  50  89 E10       29.52F
CLINTONVILLE   RAIN      54  52  94 E3        29.51F
WAUTOMA        LGT RAIN  60  56  86 SE6       29.46F
$$

WIZ038-039-048-051-260900-
FOX VALLEY

CITY           SKY/WX    TMP DP  RH WIND       PRES   REMARKS
NWS GREEN BAY  CLOUDY    53  53 100 NE5       29.52F
APPLETON       DRIZZLE   55  50  82 SE7       29.49F
OSHKOSH        LGT RAIN  60  53  77 SE6       29.48F
FOND DU LAC    CLOUDY    62  51  67 SE13      29.48F
$$

WIZ022-050-052-260900-
EAST CENTRAL WISCONSIN

CITY           SKY/WX    TMP DP  RH WIND       PRES   REMARKS
EPHRAIM        RAIN      47  46  97 E7        29.56F
WASHINGTON ISL CLOUDY    46  43  87 E6        29.57F
STURGEON BAY   CLOUDY    52  48  86 E8        29.55F
MANITOWOC      CLOUDY    58  51  78 S13G24    29.53F
SHEBOYGAN      CLOUDY    56  51  84 S6        29.52F
$$

LMZ563-521-522-541>543-260900-
LAKESHORE

STATION/POSITION TIME  TEMP    WIND        PRES    VSBY  WAVE
                       AIR SEA DIR/SP/G                  HT/PER
                 (UTC) (F)     (DEG/KT/KT) (MB)    (MI)  (FT/S)
SHEBOYGAN LKSHOR 0800   51     180/ 13/ 17  999.5F
KEWAUNEE LKSHORE 0748   53     110/  7/ 12  999.9F
NORTHPORT PIER   0740   43      80/  8/ 12 1002.0F
N MID LAKE BUOY  0750   41 37   90/ 10/ 12 1003.1F         2/ 4
CHAMBERS ISLAND  0740   41      20/  9/ 11 1001.4F
MENOMINEE LKSHOR 0748   42      10/ 17/ 19 1000.3F
$$




USA.gov is the U.S. government's official web portal to all federal, state and local government web resources and services.